Powrót do katalogu

SL-8 R/B

AktywnyPO
NORAD 27535·ROCKET BODY·🇷🇺 Russia

Wystrzelony Sep 26, 2002 z Plesetsk Cosmodrome

Loading…

Następne Przeloty (najbliższe 24 godziny)

TLE

ŚwieżeSource: Space-Track

Epoka: Sep 14, 2026, 23:09 UTC

1 27535U 02046B   26257.96479263  .00000046  00000-0  32263-4 0  9992
2 27535  82.9288 243.7221 0037105  15.9706   1.7341 13.74707295202191

Śledź SL-8 R/B w czasie rzeczywistym z AllMySat

Download on the App Store